Gustavus, AK

4:06 AM AKST on February 27, 2017 (GMT -0900)
Gustavus

Weather History for PAGS - October, 2012

Change the Weather History Date:

Saturday, October 13, 2012

  Actual Average Record
Temperature  
Mean Temperature 44 °F -  
Max Temperature 48 °F 49 °F 57 °F (2016)
Min Temperature 39 °F 38 °F 21 °F (2016)
Degree Days  
Heating Degree Days 22    
Moisture  
Dew Point 41 °F    
Average Humidity 84    
Maximum Humidity 93    
Minimum Humidity 76    
Precipitation  
Precipitation 0.00 in - - ()
Sea Level Pressure  
Sea Level Pressure 29.42 in    
Wind  
Wind Speed 7 mph (SE)    
Max Wind Speed 18 mph    
Max Gust Speed 28 mph    
Visibility 10 miles    
Events      
Averages and records for this station are not official NWS values.
T = Trace of Precipitation, MM = Missing Value Source: NWS Daily Summary

Daily Weather History Graph

Daily Weather History Graph

Search for Another Location

Airport or City:

Trip Planner

Search our weather history database for the weather conditions in past years. The results will help you decide how hot, cold, wet, or windy it might be!

Date:

Astronomy

Oct. 13, 2012 Rise Set
Actual Time 7:35 AM AKDT 6:00 PM AKDT
Civil Twilight 6:55 AM AKDT 6:40 PM AKDT
Nautical Twilight 6:09 AM AKDT 7:26 PM AKDT
Astronomical Twilight 5:23 AM AKDT 8:13 PM AKDT
Moon 5:16 AM AKDT (10/13) 4:59 PM AKDT (10/13)
Length of Visible Light 11h 45m
Length of Day
10h 25m
Waning Crescent, 4% of the Moon is Illuminated
Oct 13
Waning Crescent
Oct 15
New
Oct 21
First Quarter
Oct 29
Full
Nov 6
Last Quarter

Hourly Weather History & Observations

Time (AKDT) Temp. Windchill Dew Point Humidity Pressure Visibility Wind Dir Wind Speed Gust Speed Precip Events Conditions
12:16 AM 39.2 °F 37.0 °F 35.6 °F 87% 29.30 in 7.0 mi NNW 3.5 mph - N/A   Overcast
12:36 AM 39.2 °F 35.9 °F 35.6 °F 87% 29.30 in 10.0 mi North 4.6 mph - N/A   Overcast
12:56 AM 39.2 °F 37.0 °F 35.6 °F 87% 29.30 in 8.0 mi NNW 3.5 mph - N/A   Overcast
1:16 AM 39.2 °F 37.0 °F 35.6 °F 87% 29.31 in 10.0 mi NW 3.5 mph - N/A   Overcast
1:36 AM 39.2 °F 37.0 °F 35.6 °F 87% 29.31 in 10.0 mi NNW 3.5 mph - N/A   Overcast
2:16 AM 39.2 °F - 35.6 °F 87% 29.32 in 10.0 mi Calm Calm - N/A   Overcast
2:36 AM 39.2 °F - 35.6 °F 87% 29.34 in 9.0 mi Calm Calm - N/A   Overcast
2:56 AM 39.2 °F - 35.6 °F 87% 29.34 in 7.0 mi Calm Calm - N/A   Overcast
3:16 AM 39.2 °F - 35.6 °F 87% 29.36 in 10.0 mi Calm Calm - N/A   Overcast
3:36 AM 39.2 °F 37.0 °F 37.4 °F 93% 29.38 in 7.0 mi East 3.5 mph - N/A   Overcast
3:56 AM 42.8 °F 37.0 °F 39.2 °F 87% 29.38 in 10.0 mi ESE 10.4 mph - N/A   Overcast
4:16 AM 42.8 °F 37.5 °F 39.2 °F 87% 29.39 in 10.0 mi ESE 9.2 mph - N/A   Overcast
4:56 AM 44.6 °F 39.2 °F 39.2 °F 81% 29.39 in 10.0 mi East 10.4 mph - N/A   Overcast
5:16 AM 44.6 °F 40.7 °F 39.2 °F 81% 29.40 in 10.0 mi SE 6.9 mph - N/A   Overcast
5:36 AM 44.6 °F 39.7 °F 39.2 °F 81% 29.40 in 10.0 mi SSE 9.2 mph - N/A   Overcast
5:56 AM 44.6 °F 39.2 °F 41.0 °F 87% 29.41 in 6.0 mi SE 10.4 mph - N/A   Overcast
6:56 AM 46.4 °F 40.1 °F 41.0 °F 81% 29.43 in 10.0 mi ESE 15.0 mph - N/A   Overcast
7:16 AM 46.4 °F 40.7 °F 41.0 °F 81% 29.44 in 10.0 mi ESE 12.7 mph - N/A   Overcast
7:36 AM 44.6 °F 37.8 °F 41.0 °F 87% 29.44 in 10.0 mi ESE 15.0 mph - N/A   Overcast
7:56 AM 46.4 °F 41.1 °F 42.8 °F 87% 29.46 in 10.0 mi ESE 11.5 mph - N/A   Overcast
8:16 AM 46.4 °F 41.5 °F 41.0 °F 81% 29.47 in 10.0 mi SE 10.4 mph - N/A   Overcast
8:36 AM 46.4 °F 41.9 °F 41.0 °F 81% 29.47 in 10.0 mi ESE 9.2 mph - N/A   Overcast
8:56 AM 46.4 °F 42.9 °F 41.0 °F 81% 29.47 in 10.0 mi ESE 6.9 mph - N/A   Overcast
9:16 AM 46.4 °F 42.9 °F 41.0 °F 81% 29.47 in 10.0 mi ESE 6.9 mph - N/A   Overcast
9:36 AM 46.4 °F 42.9 °F 42.8 °F 87% 29.47 in 10.0 mi East 6.9 mph - N/A   Overcast
9:56 AM 46.4 °F 43.5 °F 42.8 °F 87% 29.47 in 10.0 mi ESE 5.8 mph - N/A   Overcast
10:16 AM 48.2 °F - 42.8 °F 82% 29.47 in 10.0 mi SE 9.2 mph - N/A   Overcast
10:36 AM 48.2 °F - 42.8 °F 82% 29.46 in 10.0 mi SE 6.9 mph - N/A   Overcast
10:56 AM 48.2 °F - 42.8 °F 82% 29.46 in 10.0 mi SE 12.7 mph 18.4 mph N/A   Overcast
11:16 AM 48.2 °F - 41.0 °F 76% 29.47 in 8.0 mi SE 13.8 mph 20.7 mph N/A   Overcast
11:36 AM 48.2 °F - 42.8 °F 82% 29.46 in 8.0 mi SE 11.5 mph - N/A   Overcast
11:56 AM 48.2 °F - 42.8 °F 82% 29.46 in 7.0 mi SSE 10.4 mph - N/A   Overcast
12:36 PM 48.2 °F - 42.8 °F 82% 29.45 in 8.0 mi SE 15.0 mph 21.9 mph N/A   Overcast
12:56 PM 48.2 °F - 42.8 °F 82% 29.45 in 9.0 mi SE 17.3 mph 21.9 mph N/A   Overcast
1:16 PM 48.2 °F - 42.8 °F 82% 29.45 in 10.0 mi South 8.1 mph - N/A   Overcast
1:36 PM 48.2 °F - 42.8 °F 82% 29.45 in 10.0 mi SSE 11.5 mph 19.6 mph N/A   Mostly Cloudy
1:56 PM 48.2 °F - 42.8 °F 82% 29.44 in 10.0 mi SE 17.3 mph 20.7 mph N/A   Overcast
2:16 PM 46.4 °F 39.5 °F 42.8 °F 87% 29.44 in 10.0 mi SE 17.3 mph 23.0 mph N/A   Overcast
2:36 PM 46.4 °F 40.1 °F 42.8 °F 87% 29.43 in 10.0 mi SE 15.0 mph - N/A   Overcast
2:56 PM 48.2 °F - 42.8 °F 82% 29.44 in 10.0 mi SE 13.8 mph 25.3 mph N/A   Overcast
3:16 PM 48.2 °F - 42.8 °F 82% 29.44 in 10.0 mi SE 18.4 mph 27.6 mph N/A   Overcast
3:36 PM 48.2 °F - 42.8 °F 82% 29.45 in 10.0 mi SE 16.1 mph 23.0 mph N/A   Overcast
3:56 PM 48.2 °F - 42.8 °F 82% 29.45 in 10.0 mi SE 15.0 mph 21.9 mph N/A   Overcast
4:16 PM 48.2 °F - 42.8 °F 82% 29.46 in 10.0 mi ESE 12.7 mph - N/A   Overcast
4:36 PM 48.2 °F - 42.8 °F 82% 29.46 in 10.0 mi SE 13.8 mph 19.6 mph N/A   Overcast
4:56 PM 48.2 °F - 42.8 °F 82% 29.46 in 10.0 mi SE 11.5 mph 17.3 mph N/A   Overcast
5:56 PM 48.2 °F - 42.8 °F 82% 29.46 in 10.0 mi SE 11.5 mph - N/A   Overcast
6:16 PM 48.2 °F - 42.8 °F 82% 29.46 in 10.0 mi SE 12.7 mph - N/A   Overcast
6:36 PM 48.2 °F - 42.8 °F 82% 29.46 in 10.0 mi ESE 10.4 mph - N/A   Overcast
6:56 PM 48.2 °F - 42.8 °F 82% 29.46 in 10.0 mi ESE 10.4 mph - N/A   Overcast
7:16 PM 48.2 °F - 42.8 °F 82% 29.46 in 9.0 mi SE 11.5 mph - N/A   Overcast
8:16 PM 46.4 °F 41.5 °F 42.8 °F 87% 29.47 in 10.0 mi SE 10.4 mph - N/A   Overcast
8:36 PM 46.4 °F 40.7 °F 42.8 °F 87% 29.47 in 10.0 mi SE 12.7 mph - N/A   Overcast
9:16 PM 46.4 °F 41.9 °F 42.8 °F 87% 29.45 in 10.0 mi ESE 9.2 mph - N/A   Overcast
9:36 PM 46.4 °F 44.3 °F 42.8 °F 87% 29.44 in 10.0 mi ESE 4.6 mph - N/A   Overcast
9:56 PM 46.4 °F 44.3 °F 42.8 °F 87% 29.44 in 10.0 mi ESE 4.6 mph - N/A   Overcast
10:16 PM 46.4 °F 42.9 °F 42.8 °F 87% 29.43 in 10.0 mi ESE 6.9 mph - N/A   Overcast
10:36 PM 48.2 °F - 42.8 °F 82% 29.42 in 10.0 mi SSE 4.6 mph - N/A   Overcast
10:56 PM 48.2 °F - 42.8 °F 82% 29.42 in 10.0 mi South 3.5 mph - N/A   Overcast
11:16 PM 46.4 °F - 42.8 °F 87% 29.40 in 10.0 mi Calm Calm - N/A   Overcast
11:36 PM 46.4 °F - 42.8 °F 87% 29.39 in 10.0 mi Calm Calm - N/A   Overcast
11:56 PM 46.4 °F 45.2 °F 42.8 °F 87% 29.38 in 10.0 mi ENE 3.5 mph - N/A   Overcast